FW1957 Weather Reports


time (UTC)temp
F
wind
direction
speed
knots
gust
knots
rain 1hr
in
rain 24hr
in
rain mn
in
humidity
%
barometer
mb
20260902113209 82 76 3.5 7.0 0.00 0.00 0.00 46 1018.7
20260902112206 82 109 1.7 7.8 0.00 0.00 0.00 48 1018.7
20260902111712 81 202 3.5 11.3 0.00 0.00 0.00 48 1018.7
20260902110711 81 148 5.2 11.3 0.00 0.00 0.00 49 1018.9
20260902110226 80 159 5.2 9.6 0.00 0.00 0.00 50 1019.0
20260902105723 80 53 3.5 9.6 0.00 0.00 0.00 49 1019.0
20260902105207 80 159 5.2 9.6 0.00 0.00 0.00 49 1019.1
20260902104708 80 109 4.3 8.7 0.00 0.00 0.00 49 1019.2
20260902104219 80 84 4.3 11.3 0.00 0.00 0.00 49 1019.2
20260902103705 80 146 4.3 11.3 0.00 0.00 0.00 49 1019.3
20260902103209 80 154 4.3 11.3 0.00 0.00 0.00 50 1019.3
20260902102711 79 130 4.3 9.6 0.00 0.00 0.00 51 1019.4
20260902101715 79 136 3.5 7.8 0.00 0.00 0.00 52 1019.5
20260902101209 79 148 3.5 10.4 0.00 0.00 0.00 51 1019.4
20260902100211 79 96 4.3 10.4 0.00 0.00 0.00 51 1019.6
20260902095708 78 49 4.3 9.6 0.00 0.00 0.00 52 1019.6
20260902095207 78 183 4.3 8.7 0.00 0.00 0.00 52 1019.7
20260902094719 78 148 3.5 8.7 0.00 0.00 0.00 54 1019.7
20260902094207 78 115 4.3 8.7 0.00 0.00 0.00 53 1019.8
20260902093737 78 71 4.3 8.7 0.00 0.00 0.00 53 1019.8
20260902092718 78 102 3.5 7.8 0.00 0.00 0.00 53 1019.8
20260902092219 78 26 3.5 7.8 0.00 0.00 0.00 54 1019.8
20260902091706 78 92 3.5 8.7 0.00 0.00 0.00 52 1019.9
20260902091213 78 103 3.5 8.7 0.00 0.00 0.00 55 1019.9
20260902090712 78 104 3.5 8.7 0.00 0.00 0.00 54 1019.9
20260902090206 78 101 3.5 7.0 0.00 0.00 0.00 54 1019.9
20260902085715 78 160 2.6 7.0 0.00 0.00 0.00 55 1019.8
20260902084713 77 142 2.6 7.0 0.00 0.00 0.00 56 1019.9
20260902084211 77 84 2.6 6.1 0.00 0.00 0.00 58 1019.9
20260902083715 77 71 2.6 6.1 0.00 0.00 0.00 58 1019.9
20260902083210 76 138 2.6 5.2 0.00 0.00 0.00 57 1019.9
20260902082711 76 63 2.6 5.2 0.00 0.00 0.00 59 1019.9
20260902082212 76 87 2.6 5.2 0.00 0.00 0.00 60 1020.0
20260902081707 75 150 2.6 5.2 0.00 0.00 0.00 61 1020.0
20260902081206 74 167 1.7 4.3 0.00 0.00 0.00 63 1020.0
20260902080719 74 149 1.7 4.3 0.00 0.00 0.00 62 1020.0
20260902080209 73 148 1.7 4.3 0.00 0.00 0.00 65 1020.0
20260902075710 72 169 0.9 3.5 0.00 0.00 0.00 64 1019.9
20260902075215 72 199 1.7 4.3 0.00 0.00 0.00 67 1020.0
20260902074719 72 205 1.7 4.3 0.00 0.00 0.00 67 1019.9
20260902074206 71 171 1.7 4.3 0.00 0.00 0.00 69 1019.9
20260902073710 71 226 2.6 4.3 0.00 0.00 0.00 69 1019.9
20260902073209 70 239 2.6 4.3 0.00 0.00 0.00 70 1019.9
20260902072715 70 244 1.7 4.3 0.00 0.00 0.00 70 1019.8
20260902071719 69 225 2.6 6.1 0.00 0.00 0.00 71 1019.7
20260902070205 68 231 2.6 6.1 0.00 0.00 0.00 73 1019.5
20260902065718 68 144 2.6 6.1 0.00 0.00 0.00 75 1019.5
20260902065216 67 190 2.6 6.1 0.00 0.00 0.00 75 1019.5
20260902064717 67 209 3.5 5.2 0.00 0.00 0.00 77 1019.5
20260902064208 66 239 3.5 6.1 0.00 0.00 0.00 78 1019.4
20260902063712 66 256 3.5 6.1 0.00 0.00 0.00 79 1019.5
20260902063208 66 230 3.5 6.1 0.00 0.00 0.00 79 1019.5
20260902062716 65 233 3.5 5.2 0.00 0.00 0.00 80 1019.5
20260902061708 64 247 2.6 3.5 0.00 0.00 0.00 81 1019.6
20260902061207 64 252 2.6 3.5 0.00 0.00 0.00 81 1019.6
20260902060718 64 259 2.6 3.5 0.00 0.00 0.00 82 1019.6
20260902055718 63 243 0.9 3.5 0.00 0.00 0.00 82 1019.6
20260902055237 63 207 1.7 3.5 0.00 0.00 0.00 82 1019.6
20260902054718 63 244 1.7 2.6 0.00 0.00 0.00 81 1019.6
20260902054214 63 252 1.7 3.5 0.00 0.00 0.00 81 1019.5
20260902053712 63 250 2.6 3.5 0.00 0.00 0.00 81 1019.6
20260902053219 63 251 2.6 5.2 0.00 0.00 0.00 81 1019.5
20260902051217 63 242 3.5 7.8 0.00 0.00 0.00 82 1019.5
20260902050716 63 245 4.3 7.8 0.00 0.00 0.00 82 1019.5
20260902050217 63 239 4.3 7.8 0.00 0.00 0.00 82 1019.4
20260902045713 63 236 3.5 6.1 0.00 0.00 0.00 82 1019.4
20260902045215 63 215 3.5 6.1 0.00 0.00 0.00 82 1019.4
20260902044708 63 209 3.5 6.1 0.00 0.00 0.00 82 1019.4
20260902044217 63 225 3.5 7.0 0.00 0.00 0.00 82 1019.5
20260902043717 63 222 3.5 7.0 0.00 0.00 0.00 81 1019.5
20260902043207 63 217 4.3 7.8 0.00 0.00 0.00 81 1019.4
20260902042716 63 205 4.3 7.8 0.00 0.00 0.00 81 1019.4
20260902042216 63 223 4.3 10.4 0.00 0.00 0.00 81 1019.5
20260902041715 63 207 4.3 10.4 0.00 0.00 0.00 81 1019.5
20260902041214 63 232 6.1 10.4 0.00 0.00 0.00 81 1019.4
20260902040220 63 229 7.0 9.6 0.00 0.00 0.00 81 1019.5
20260902035718 63 240 7.0 8.7 0.00 0.00 0.00 81 1019.5
20260902035242 63 233 5.2 8.7 0.00 0.00 0.00 81 1019.5
20260902034705 63 206 4.3 7.0 0.00 0.00 0.00 81 1019.5
20260902034214 63 223 4.3 7.0 0.00 0.00 0.00 81 1019.6
20260902033717 63 215 3.5 6.1 0.00 0.00 0.00 81 1019.7
20260902033234 63 217 2.6 6.1 0.00 0.00 0.00 81 1019.7
20260902032716 63 219 3.5 6.1 0.00 0.00 0.00 82 1019.5
20260902032219 63 228 3.5 6.1 0.00 0.00 0.00 82 1019.5
20260902031719 63 211 3.5 6.1 0.00 0.00 0.00 82 1019.6
20260902031216 63 209 2.6 4.3 0.00 0.00 0.00 81 1019.6
20260902030712 63 223 1.7 3.5 0.00 0.00 0.00 80 1019.5
20260902030214 63 221 1.7 4.3 0.00 0.00 0.00 80 1019.5
20260902025715 63 215 1.7 4.3 0.00 0.00 0.00 80 1019.5
20260902025209 63 220 2.6 5.2 0.00 0.00 0.00 80 1019.6
20260902024715 63 252 3.5 5.2 0.00 0.00 0.00 79 1019.6
20260902024219 63 250 3.5 5.2 0.00 0.00 0.00 80 1019.5
20260902023709 64 244 2.6 3.5 0.00 0.00 0.00 79 1019.5
20260902023210 64 257 1.7 3.5 0.00 0.00 0.00 79 1019.4
20260902022713 64 266 1.7 3.5 0.00 0.00 0.00 80 1019.4
20260902022217 64 257 2.6 3.5 0.00 0.00 0.00 80 1019.5
20260902021710 64 252 2.6 2.6 0.00 0.00 0.00 79 1019.5
20260902021219 64 225 1.7 2.6 0.00 0.00 0.00 79 1019.5
20260902020710 64 249 1.7 2.6 0.00 0.00 0.00 78 1019.5
20260902020209 64 249 1.7 2.6 0.00 0.00 0.00 78 1019.5
20260902015710 64 258 0.9 2.6 0.00 0.00 0.00 77 1019.4
20260902015207 64 224 0.9 1.7 0.00 0.00 0.00 77 1019.5
20260902014718 64 224 0.9 2.6 0.00 0.00 0.00 77 1019.5
20260902014211 64 224 0.9 2.6 0.00 0.00 0.00 77 1019.6
20260902013716 64 224 0.9 3.5 0.00 0.00 0.00 76 1019.6
20260902013205 64 224 1.7 3.5 0.00 0.00 0.00 76 1019.6
20260902012207 64 217 1.7 2.6 0.00 0.00 0.00 76 1019.6
20260902011719 65 252 1.7 2.6 0.00 0.00 0.00 76 1019.6
20260902011216 65 254 1.7 4.3 0.00 0.00 0.00 75 1019.6
20260902010208 65 253 2.6 6.1 0.00 0.00 0.00 75 1019.6
20260902005213 65 257 2.6 4.3 0.00 0.00 0.00 74 1019.5
20260902004708 65 267 1.7 3.5 0.00 0.00 0.00 75 1019.5
20260902004209 65 252 1.7 4.3 0.00 0.00 0.00 74 1019.6
20260902003209 65 238 2.6 3.5 0.00 0.00 0.00 74 1019.8
20260902002706 65 239 2.6 3.5 0.00 0.00 0.00 75 1019.8
20260902001219 65 255 1.7 3.5 0.00 0.00 0.00 76 1019.8
20260902000718 66 254 2.6 3.5 0.00 0.00 0.00 76 1019.9
20260902000215 66 246 2.6 3.5 0.00 0.00 0.00 76 1019.9
20260901235716 66 242 2.6 3.5 0.00 0.00 0.00 74 1019.9
20260901235217 66 247 2.6 3.5 0.00 0.00 0.00 73 1019.8
20260901234705 67 257 1.7 2.6 0.00 0.00 0.00 71 1019.8
20260901234215 67 282 0.9 2.6 0.00 0.00 0.00 70 1019.8
20260901233713 67 282 0.9 2.6 0.00 0.00 0.00 68 1019.8
20260901233232 67 278 0.9 2.6 0.00 0.00 0.00 67 1019.7
20260901232714 67 284 0.9 2.6 0.00 0.00 0.00 67 1019.7
20260901232219 67 299 1.7 3.5 0.00 0.00 0.00 67 1019.7
20260901231714 67 278 1.7 3.5 0.00 0.00 0.00 67 1019.7
20260901231218 68 259 2.6 3.5 0.00 0.00 0.00 68 1019.7
20260901230711 68 258 1.7 2.6 0.00 0.00 0.00 68 1019.7
20260901230207 68 273 1.7 3.5 0.00 0.00 0.00 64 1019.7
20260901225715 68 334 1.7 3.5 0.00 0.00 0.00 64 1019.8
20260901225218 68 17 1.7 2.6 0.00 0.00 0.00 64 1019.8
20260901224715 68 5 1.7 2.6 0.00 0.00 0.00 64 1019.7
20260901224220 68 321 1.7 2.6 0.00 0.01 0.00 63 1019.7
20260901223715 68 304 1.7 2.6 0.00 0.01 0.00 64 1019.7
20260901223207 68 312 0.9 2.6 0.00 0.02 0.00 63 1019.7
20260901222717 68 304 0.9 2.6 0.00 0.02 0.00 64 1019.7
20260901222209 68 304 0.9 2.6 0.00 0.03 0.00 64 1019.6
20260901221712 69 335 0.9 1.7 0.00 0.04 0.00 65 1019.6
20260901220710 69 5 0.0 2.6 0.00 0.06 0.00 63 1019.6
20260901220210 69 5 0.9 3.5 0.00 0.07 0.00 61 1019.6
20260901215717 69 5 1.7 3.5 0.00 0.08 0.00 60 1019.5
20260901214710 69 17 1.7 4.3 0.00 0.20 0.00 61 1019.5
20260901214216 69 5 2.6 4.3 0.00 0.21 0.00 61 1019.5
20260901213706 69 33 2.6 6.1 0.00 0.23 0.00 61 1019.5
20260901213218 69 21 2.6 6.1 0.00 0.24 0.00 61 1019.5
20260901212707 69 32 2.6 4.3 0.00 0.26 0.00 61 1019.5
20260901211716 69 73 1.7 3.5 0.00 0.28 0.00 61 1019.5
20260901211212 69 76 1.7 2.6 0.00 0.29 0.00 61 1019.4
20260901210713 70 51 1.7 2.6 0.00 0.30 0.00 62 1019.4
20260901210209 70 22 1.7 2.6 0.00 0.31 0.00 61 1019.3
20260901205713 70 355 1.7 3.5 0.00 0.31 0.00 61 1019.3
20260901205218 70 355 1.7 3.5 0.00 0.32 0.00 60 1019.2
20260901204716 70 355 1.7 3.5 0.00 0.34 0.00 60 1019.2
20260901204214 71 5 1.7 3.5 0.00 0.35 0.00 60 1019.2
20260901203709 71 0 1.7 3.5 0.00 0.38 0.00 59 1019.2
20260901202209 71 321 1.7 2.6 0.00 0.46 0.00 57 1019.2
20260901200704 71 284 0.9 3.5 0.00 0.47 0.00 63 1019.1
20260901200221 71 284 0.9 3.5 0.00 0.47 0.00 60 1019.1
20260901195707 71 290 1.7 3.5 0.00 0.47 0.00 57 1019.1
20260901195219 71 267 1.7 5.2 0.00 0.47 0.00 58 1019.1
20260901194718 71 277 1.7 5.2 0.00 0.47 0.00 57 1019.1
20260901194219 71 277 2.6 5.2 0.00 0.47 0.00 55 1019.1
20260901191706 72 294 1.7 3.5 0.00 0.47 0.00 57 1019.0
20260901191205 72 280 1.7 6.1 0.00 0.47 0.00 58 1019.0
20260901190718 72 253 2.6 6.1 0.00 0.47 0.00 59 1019.0
20260901190215 72 250 2.6 6.1 0.00 0.47 0.00 59 1019.0
20260901185716 73 244 1.7 2.6 0.00 0.47 0.00 58 1019.0
20260901185219 73 254 1.7 3.5 0.00 0.47 0.00 56 1018.9
20260901184713 73 255 1.7 3.5 0.00 0.47 0.00 55 1018.9
20260901184210 73 265 1.7 3.5 0.00 0.47 0.00 53 1018.8
20260901183218 74 317 2.6 4.3 0.00 0.47 0.00 48 1018.7
20260901182713 74 290 2.6 5.2 0.00 0.47 0.00 48 1018.6
20260901182208 74 340 2.6 5.2 0.00 0.47 0.00 48 1018.6
20260901181717 74 339 2.6 5.2 0.00 0.47 0.00 48 1018.6
20260901181220 74 348 1.7 5.2 0.00 0.47 0.00 47 1018.5
20260901180711 74 331 2.6 5.2 0.00 0.47 0.00 47 1018.4
20260901180205 75 337 2.6 5.2 0.00 0.47 0.00 46 1018.4
20260901175709 75 326 2.6 5.2 0.00 0.47 0.00 46 1018.3
20260901175214 75 342 2.6 7.8 0.00 0.47 0.00 46 1018.2
20260901174712 75 312 3.5 7.8 0.00 0.47 0.00 45 1018.1
20260901174212 76 348 4.3 8.7 0.00 0.47 0.00 45 1018.0
20260901173718 76 0 4.3 10.4 0.00 0.47 0.00 44 1018.0
20260901173207 76 355 4.3 10.4 0.00 0.47 0.00 44 1018.0
20260901172218 76 326 4.3 9.6 0.00 0.47 0.00 44 1017.9
20260901171714 76 355 5.2 12.2 0.00 0.47 0.00 44 1017.9
20260901170707 76 341 7.0 13.9 0.00 0.47 0.00 43 1017.9
20260901170212 77 332 7.0 13.9 0.00 0.47 0.00 43 1017.8
20260901165206 77 326 6.1 10.4 0.00 0.47 0.00 43 1017.8
20260901164716 77 320 5.2 12.2 0.00 0.47 0.00 43 1017.8
20260901164218 78 355 6.1 12.2 0.00 0.47 0.00 43 1017.8
20260901163717 78 343 7.0 13.9 0.00 0.47 0.00 43 1017.8
20260901163208 78 310 7.0 14.8 0.00 0.47 0.00 43 1017.7
20260901162711 78 310 8.7 14.8 0.00 0.47 0.00 42 1017.7
20260901161716 78 331 7.8 14.8 0.00 0.47 0.00 41 1017.8
20260901161215 78 305 7.8 14.8 0.00 0.47 0.00 42 1017.8
20260901160712 78 339 8.7 14.8 0.00 0.47 0.00 41 1017.8
20260901160214 78 340 7.0 13.9 0.00 0.47 0.00 41 1017.8
20260901155707 79 340 7.0 17.4 0.00 0.47 0.00 40 1017.9
20260901155211 79 315 7.0 17.4 0.00 0.47 0.00 41 1017.8
20260901154705 79 313 8.7 17.4 0.00 0.47 0.00 41 1017.8
20260901153712 79 336 10.4 19.1 0.00 0.47 0.00 40 1017.8
20260901153215 79 312 10.4 19.1 0.00 0.47 0.00 40 1017.8
20260901152706 79 329 10.4 16.5 0.00 0.47 0.00 40 1017.8
20260901152209 79 287 8.7 15.6 0.00 0.47 0.00 40 1017.8
20260901151738 79 0 9.6 18.2 0.00 0.47 0.00 41 1017.8
20260901151211 79 330 11.3 19.1 0.00 0.47 0.00 40 1017.8
20260901150240 79 338 9.6 19.1 0.00 0.47 0.00 41 1017.8
20260901145213 79 338 8.7 15.6 0.00 0.47 0.00 41 1017.9
20260901144706 79 311 8.7 14.8 0.00 0.47 0.00 41 1017.9
20260901144234 80 332 8.7 15.6 0.00 0.47 0.00 41 1017.9
20260901143717 80 290 9.6 18.2 0.00 0.47 0.00 41 1017.9
20260901143227 80 319 10.4 18.2 0.00 0.47 0.00 42 1018.0
20260901142706 80 311 10.4 18.2 0.00 0.47 0.00 42 1018.0
20260901141232 80 334 8.7 17.4 0.00 0.47 0.00 43 1018.0
20260901140714 80 339 8.7 16.5 0.00 0.47 0.00 42 1018.1
20260901140246 80 22 8.7 16.5 0.00 0.47 0.00 42 1018.0
20260901135716 80 340 7.8 15.6 0.00 0.47 0.00 42 1018.2
20260901135206 80 329 7.8 17.4 0.00 0.47 0.00 42 1018.2
20260901134713 80 299 8.7 17.4 0.00 0.47 0.00 41 1018.2
20260901134218 80 340 7.8 13.9 0.00 0.47 0.00 42 1018.3
20260901132715 79 333 10.4 16.5 0.00 0.47 0.00 43 1018.4
20260901132213 79 5 10.4 16.5 0.00 0.47 0.00 42 1018.4
20260901131715 79 339 9.6 15.6 0.00 0.47 0.00 42 1018.4
20260901131208 79 342 7.8 15.6 0.00 0.47 0.00 43 1018.5
20260901130716 79 0 7.8 13.0 0.00 0.47 0.00 44 1018.6
20260901130208 79 327 7.0 13.9 0.00 0.47 0.00 43 1018.7
20260901125716 79 331 7.8 13.9 0.00 0.47 0.00 44 1018.7
20260901125208 79 291 8.7 14.8 0.00 0.47 0.00 45 1018.7
20260901124708 79 333 8.7 14.8 0.00 0.47 0.00 45 1018.6
20260901124213 78 308 9.6 14.8 0.00 0.47 0.00 45 1018.7
20260901123704 79 324 8.7 13.9 0.00 0.47 0.00 45 1018.8
20260901122207 78 355 8.7 15.6 0.00 0.47 0.00 45 1018.8
20260901121705 78 329 7.8 14.8 0.00 0.47 0.00 46 1018.9
20260901121205 78 295 8.7 14.8 0.00 0.47 0.00 47 1018.9
20260901115713 78 342 7.0 13.9 0.00 0.47 0.00 47 1018.9
20260901115212 78 349 7.0 13.9 0.00 0.47 0.00 46 1019.0
20260901114708 77 342 7.0 13.9 0.00 0.47 0.00 49 1019.0
20260901114205 77 334 7.8 14.8 0.00 0.47 0.00 47 1019.1
20260901113717 76 328 7.8 14.8 0.00 0.47 0.00 49 1019.2